Flag for United Kingdom Weather past 2 weeks in Bangor, Wales, United Kingdom

Now
56 °F

Cool.


Feels Like: 51 °F
Forecast: 55 / 63 °F
Wind: 21 mph from Southwest

Location: Capel Curig

Current Time: Jul 6, 2015 at 10:22:21 AM

Latest Report: Jul 6, 2015 at 9:00 AM


Visibility: 18 mi

Pressure: 30.01 "Hg

Humidity: 83%

Dew point: 51 °F

Location of BangorLocation

Historic Weather in Bangor — Graph

°F

Bangor temperature yesterday

Maximum temperature yesterday: 60 °F (at 11:00 AM)
Minimum temperature yesterday: 49 °F (at 5:00 AM)
Average temperature yesterday: 56 °F

Past Weeks' High & Low Weather Summary

 TemperatureHumidityPressure
High80 °F (Jul 1, 4:00 PM)100% (Jun 25, 3:00 AM)30.28 "Hg (Jun 25, 3:00 AM)
Low48 °F (Jun 22, 5:00 AM)47% (Jul 1, 12:00 AM)29.77 "Hg (Jul 1, 11:00 AM)
Average59 °F81%30.04 "Hg
* Reported Jun 21 9:00 AM — Jul 6 9:00 AM, Bangor, Weather by CustomWeather, © 2015

Note: Actual official high and low records may vary slightly from our data, if they occured in-between our weather recording intervals... More about our weather records

Advertising

Bangor weather history for previous 24 hours

 ConditionsComfort  
Time TempWeatherWind HumidityBarometerVisibility
9:00 AM
Mon, Jul 6
56 °FCool.21 mph83%30.01 "Hg18 mi
8:00 AM54 °FCool.21 mph88%30.01 "Hg17 mi
7:00 AM55 °FCool.22 mph85%30.02 "Hg16 mi
6:00 AM54 °FCool.16 mph88%30.02 "Hg18 mi
5:00 AM54 °FCool.13 mph90%30.03 "Hg18 mi
3:00 AM54 °FSmoke.18 mph90%30.03 "Hg6 mi
2:00 AM54 °FCool.20 mph86%30.02 "Hg22 mi
1:00 AM54 °FCool.18 mph86%30.02 "Hg19 mi
12:00 AM54 °FCool.25 mph86%30.01 "Hg19 mi
11:00 PM
Sun, Jul 5
55 °FCool.22 mph86%30.01 "Hg22 mi
10:00 PM55 °FCool.20 mph84%30.00 "Hg16 mi
9:00 PM55 °FCool.24 mph84%29.97 "Hg25 mi
8:00 PM55 °FCool.26 mph79%29.96 "Hg28 mi
7:00 PM56 °FCool.18 mph80%29.95 "Hg19 mi
6:00 PM57 °FCool.17 mph79%29.96 "Hg31 mi
5:00 PM58 °FCool.18 mph78%29.95 "Hg16 mi
4:00 PM56 °FCool.14 mph85%29.96 "Hg25 mi
3:00 PM55 °FCool.13 mph88%29.97 "Hg31 mi
2:00 PM54 °FCool.12 mph95%29.98 "Hg11 mi
1:00 PM54 °FCool.15 mph92%29.99 "Hg7 mi
12:00 PM59 °FSmoke.17 mph73%29.98 "Hg4 mi
11:00 AM60 °FCool.13 mph69%29.98 "Hg10 mi
10:00 AM59 °FCool.9 mph74%30.01 "Hg14 mi
Weather by CustomWeather, © 2015

See weather overviewHow to use our weather pages